Location: Edoum�
(0.9447°N, 10.6482°E)
Time: 07:53:44
(UTC+00:00)

Ariane 3 Deb - Pass Details

Date: 05 October 2020
Orbit: 229 x 18408 km, 6.8° (Epoch: 21 October)

Event Time Altitude Azimuth Distance (km) Brightness Sun altitude
Rises 13:57:42 0° 268° (W) 21,132 11.0 46.6°
Reaches altitude 10° 14:55:16 10° 265° (W) 22,883 12.0 32.4°
Maximum altitude 17:23:35 73° 181° (S) 3,217 6.2 -4.6°
Drops below altitude 10° 17:32:41 10° 97° (E) 3,360 5.7 -6.8°
Enters shadow 17:33:08 - 96° (E) 3,488 5.7 -6.9°
